TimeCDT,TemperatureF,Dew PointF,Humidity,Sea Level PressureIn,VisibilityMPH,Wind Direction,Wind SpeedMPH,Gust SpeedMPH,PrecipitationIn,Events,Conditions,WindDirDegrees,DateUTC
12:51 AM,48.0,43.0,83,30.08,6.0,NW,8.1,-,0.06,Rain,Light Rain,310,2014-05-15 05:51:00
1:51 AM,48.0,44.1,86,30.06,10.0,NW,9.2,-,0.04,Rain,Light Rain,310,2014-05-15 06:51:00
2:51 AM,48.2,44.6,87,30.03,8.0,WNW,6.9,-,N/A,Rain,Light Rain,300,2014-05-15 07:51:00
3:11 AM,48.2,44.6,87,30.04,7.0,WNW,6.9,-,0.01,Rain,Light Rain,290,2014-05-15 08:11:00
3:51 AM,48.0,45.0,89,30.04,7.0,WNW,6.9,-,0.01,Rain,Light Rain,290,2014-05-15 08:51:00
4:51 AM,48.0,45.0,89,30.04,9.0,West,4.6,-,0.00,,Overcast,270,2014-05-15 09:51:00
5:51 AM,48.0,44.1,86,30.04,9.0,West,5.8,-,N/A,,Overcast,270,2014-05-15 10:51:00
6:51 AM,48.9,44.1,83,30.06,9.0,West,6.9,-,N/A,,Mostly Cloudy,260,2014-05-15 11:51:00
7:51 AM,51.1,44.1,77,30.07,10.0,West,8.1,-,N/A,,Mostly Cloudy,270,2014-05-15 12:51:00
8:51 AM,55.0,43.0,64,30.07,10.0,West,11.5,-,N/A,,Scattered Clouds,280,2014-05-15 13:51:00
9:51 AM,57.0,44.1,62,30.08,10.0,WNW,10.4,20.7,N/A,,Scattered Clouds,300,2014-05-15 14:51:00
10:51 AM,59.0,44.1,58,30.08,10.0,NW,9.2,-,N/A,,Mostly Cloudy,310,2014-05-15 15:51:00
11:51 AM,61.0,43.0,52,30.06,10.0,West,6.9,-,N/A,,Mostly Cloudy,270,2014-05-15 16:51:00
12:51 PM,60.8,42.8,52,30.05,10.0,NNW,5.8,-,N/A,Rain,Light Rain,340,2014-05-15 17:51:00
2:51 PM,61.0,39.9,46,30.00,10.0,Calm,Calm,-,0.00,,Mostly Cloudy,0,2014-05-15 19:51:00
3:07 PM,60.8,42.8,52,30.01,9.0,NNW,12.7,-,N/A,Thunderstorm,Thunderstorm,330,2014-05-15 20:07:00
3:17 PM,53.6,42.8,67,30.02,4.0,West,21.9,27.6,0.01,Rain-Thunderstorm,Light Thunderstorms and Rain,270,2014-05-15 20:17:00
3:20 PM,51.8,44.6,76,30.02,3.0,West,15.0,27.6,0.04,Rain-Thunderstorm,Heavy Thunderstorms and Rain,280,2014-05-15 20:20:00
3:29 PM,53.6,44.6,72,30.02,5.0,NNE,5.8,17.3,0.09,Rain-Thunderstorm,Thunderstorms and Rain,20,2014-05-15 20:29:00
3:51 PM,52.0,45.0,77,30.05,7.0,West,10.4,-,0.11,Rain-Thunderstorm,Light Thunderstorms and Rain,260,2014-05-15 20:51:00
3:58 PM,51.8,44.6,76,30.04,7.0,WNW,9.2,-,0.02,Rain,Light Rain,290,2014-05-15 20:58:00
4:51 PM,55.0,46.9,74,30.04,10.0,West,6.9,-,0.07,,Mostly Cloudy,260,2014-05-15 21:51:00
5:51 PM,55.9,46.0,69,30.03,10.0,North,12.7,-,N/A,,Mostly Cloudy,350,2014-05-15 22:51:00
6:51 PM,55.4,42.8,63,30.04,10.0,North,10.4,-,N/A,,Mostly Cloudy,350,2014-05-15 23:51:00
7:51 PM,54.0,44.1,69,30.06,10.0,Calm,Calm,-,N/A,,Mostly Cloudy,0,2014-05-16 00:51:00
8:51 PM,53.1,39.0,59,30.08,10.0,WNW,8.1,-,N/A,,Mostly Cloudy,290,2014-05-16 01:51:00
9:51 PM,52.0,35.1,53,30.09,10.0,West,6.9,-,N/A,,Scattered Clouds,280,2014-05-16 02:51:00
10:51 PM,50.0,35.1,57,30.09,10.0,West,9.2,-,N/A,,Scattered Clouds,280,2014-05-16 03:51:00
11:51 PM,48.9,35.1,59,30.07,10.0,WNW,8.1,-,N/A,,Partly Cloudy,290,2014-05-16 04:51:00